Vorticity
nan nan nan nan nan nan nan nan nan nan nan nan nan nan nan nan nan nan nan nan nan nan nan nan nan nan nan nan nan nan nan nan nan nan nan nan nan nan nan nan nan nan nan nan nan nan nan nan nan nan nan nan nan nan nan nan nan nan nan nan nan nan nan nan nan nan nan nan nan
nan 8 6 7 10 12 11 9 8 8 9 10 10 9 9 9 9 9 8 8 8 7 8 7 4 3 3 6 9 9 8 7 7 9 11 13 11 10 9 8 7 6 7 10 12 12 9 9 10 11 10 11 10 10 10 8 8 8 8 8 10 11 14 15 13 13 14 15 nan
nan 10 10 9 8 9 10 8 6 6 9 12 11 9 9 9 9 9 7 6 6 8 10 7 5 5 7 9 8 7 6 6 6 8 10 10 9 9 9 8 7 8 9 11 11 8 6 8 11 11 10 8 8 9 10 10 8 8 9 11 12 12 12 12 11 13 14 14 nan
nan 10 10 7 6 8 11 8 5 8 13 13 10 9 10 10 9 8 6 6 9 11 9 6 6 7 8 6 4 5 6 4 6 9 11 10 9 10 10 9 9 10 11 11 9 7 6 9 12 12 10 8 10 11 10 8 8 9 10 13 12 10 10 9 10 11 11 10 nan
nan 10 8 5 5 9 10 7 7 11 14 12 9 8 8 9 8 7 7 9 9 7 4 5 7 5 4 3 5 8 10 9 11 13 12 10 11 12 11 10 10 11 11 10 8 8 9 12 14 12 11 11 12 11 9 7 9 10 10 11 10 10 9 8 9 9 8 7 nan
nan 8 5 4 6 10 9 6 8 12 13 10 6 6 7 7 5 5 6 8 6 5 5 9 8 6 4 7 10 12 12 13 13 11 9 11 12 11 10 11 11 11 10 9 10 11 13 15 14 11 10 10 10 9 8 9 10 10 9 8 9 9 9 8 8 8 7 4 nan
nan 5 4 5 8 9 8 7 9 11 12 8 5 5 5 5 5 6 9 9 8 8 9 10 7 6 7 10 11 11 11 10 9 9 11 12 9 9 10 12 12 12 11 11 13 15 15 16 14 11 9 10 11 10 10 9 8 8 7 6 7 8 9 10 9 8 6 4 nan
nan 4 6 8 8 8 8 9 10 11 11 7 4 4 5 6 9 12 13 11 9 8 9 7 4 5 8 10 10 9 9 9 10 10 11 9 8 10 12 13 14 14 14 15 15 14 14 16 13 11 10 11 10 10 10 8 7 6 6 7 7 8 9 10 8 6 5 6 nan
nan 7 9 10 8 7 7 9 10 11 9 6 4 5 6 8 13 15 14 10 7 7 8 5 4 7 10 11 10 11 11 11 10 9 9 8 10 12 14 16 15 15 16 17 16 15 16 15 12 9 8 8 6 6 6 7 7 7 8 11 9 8 6 6 5 4 5 8 nan
nan 7 10 10 7 7 9 11 11 11 10 7 7 8 7 10 14 14 12 7 5 6 8 6 7 10 11 12 12 11 11 10 9 8 9 10 12 14 16 16 15 15 16 16 17 18 19 16 10 7 6 6 6 6 7 8 9 9 10 10 8 6 6 5 6 7 9 9 nan
nan 7 9 8 6 8 10 12 12 11 10 9 9 11 11 12 12 10 8 6 6 7 9 9 9 11 12 13 11 9 10 9 8 8 10 12 15 16 18 16 16 17 18 18 19 20 19 14 10 8 6 5 9 11 11 10 11 11 10 7 6 7 8 7 9 11 12 11 nan
nan 7 9 7 7 10 12 13 12 9 8 9 11 12 12 11 7 7 7 8 8 10 11 10 10 11 13 11 8 8 9 8 8 10 11 13 16 18 18 18 19 21 23 25 25 22 18 12 10 9 9 9 12 12 12 11 11 11 11 8 9 9 9 9 10 11 11 10 nan
nan 7 8 7 8 11 12 13 12 10 8 9 10 11 11 8 6 8 10 10 11 12 11 9 10 12 12 9 8 8 8 7 8 10 10 12 14 16 18 20 20 24 28 30 28 25 20 16 14 13 12 13 11 10 10 11 11 11 11 11 10 10 9 10 10 10 9 9 nan
nan 8 8 8 10 12 12 12 12 10 8 8 9 10 10 8 7 9 11 11 10 11 10 10 11 10 8 7 8 7 8 9 8 8 9 10 10 12 16 18 20 25 28 28 27 28 27 24 20 19 17 15 12 11 12 13 13 12 12 11 11 10 10 11 11 11 11 10 nan
nan 9 9 9 11 12 12 12 12 9 8 8 9 10 10 8 7 9 9 10 11 12 10 9 9 7 7 7 9 10 11 10 9 9 9 8 8 10 12 14 19 23 22 21 23 26 29 29 27 25 23 21 18 17 16 15 14 14 13 12 11 12 12 12 13 13 13 13 nan
nan 9 10 10 10 11 12 12 10 8 7 8 8 9 10 9 8 7 8 10 13 10 7 7 9 9 7 7 10 12 13 11 9 9 9 8 7 8 9 12 18 21 17 14 15 19 23 26 28 28 28 28 26 24 22 21 19 17 16 15 15 15 15 15 17 17 16 15 nan
nan 10 10 10 10 11 12 11 9 7 6 7 8 9 10 9 8 6 6 10 11 7 5 7 11 9 7 7 11 13 13 10 8 8 8 7 7 8 8 10 16 20 16 10 7 11 14 17 20 21 23 26 27 28 27 26 24 22 20 20 20 19 18 17 19 18 17 15 nan
nan 10 10 10 10 11 11 10 9 8 7 8 10 10 9 8 7 7 7 8 8 6 7 10 11 9 7 8 11 11 11 9 7 6 7 7 9 9 9 10 15 19 18 9 3 7 9 10 12 13 14 16 18 20 22 23 22 20 20 19 18 18 16 15 16 15 13 11 nan
nan 9 10 10 10 11 10 9 10 10 10 10 10 9 8 8 9 8 8 7 7 8 9 11 10 8 7 9 10 11 11 9 6 6 7 9 10 9 9 11 14 19 19 10 3 6 8 8 9 9 9 9 10 11 12 13 13 12 13 11 10 11 11 10 10 10 9 9 nan
nan 9 10 10 11 11 10 10 11 10 10 9 8 8 9 9 9 9 8 7 8 9 10 10 9 8 7 8 10 11 13 10 6 6 8 10 9 9 10 12 15 19 19 11 5 6 7 8 8 8 7 7 8 9 9 9 9 9 10 8 6 6 7 8 8 8 8 9 nan
nan 10 10 11 12 11 10 10 10 9 9 9 9 9 10 10 9 9 9 9 9 10 10 9 8 8 8 9 9 11 14 11 6 7 8 9 9 10 12 14 16 18 17 11 7 6 6 7 8 9 7 6 7 8 9 9 8 8 10 10 8 7 7 8 9 9 9 10 nan
nan 10 11 13 11 9 9 9 9 9 9 9 9 9 10 10 10 10 10 10 10 10 10 10 9 9 9 9 9 10 12 10 8 8 8 8 8 10 12 14 15 17 17 13 9 6 5 6 7 8 8 6 5 6 7 8 9 8 8 9 10 9 9 9 10 10 10 11 nan
nan 10 13 13 9 8 9 10 9 9 9 9 9 10 10 10 10 10 11 10 9 9 11 11 9 9 10 10 9 9 10 10 9 8 8 8 8 9 13 15 14 16 17 16 14 12 10 7 6 7 8 7 5 5 6 8 9 8 6 7 9 9 9 8 10 10 10 12 nan
nan 10 13 12 9 9 9 9 8 8 9 9 9 10 10 10 11 11 10 9 9 10 12 11 9 9 10 10 9 9 9 10 10 8 8 8 9 11 14 16 15 15 15 11 16 24 27 22 14 9 8 8 6 6 6 7 7 7 7 7 8 8 7 7 9 9 9 12 nan
nan 9 12 11 9 9 9 7 7 8 9 9 9 10 10 10 11 11 10 9 10 10 11 10 10 10 10 9 8 9 10 11 10 9 8 8 9 11 15 16 16 15 9 0 5 22 33 37 31 23 15 9 8 8 7 6 7 7 7 7 7 8 7 6 7 8 10 11 nan
nan 9 11 11 10 9 8 8 8 8 9 9 9 10 10 11 11 10 9 9 10 11 11 11 10 8 11 11 7 8 10 11 10 9 9 7 7 11 14 16 18 15 2 -5 -1 9 16 25 34 35 29 15 10 10 9 7 6 7 6 7 8 8 8 7 6 8 10 10 nan
nan 8 10 11 11 10 9 8 8 8 8 9 9 10 11 11 10 9 9 10 11 12 12 11 8 8 13 11 6 8 10 10 9 9 10 8 7 9 13 16 18 14 -1 -7 -0 5 7 11 20 30 35 26 13 10 9 8 7 8 7 6 6 7 8 7 6 7 9 8 nan
nan 7 9 11 11 10 10 8 7 7 8 9 10 10 10 10 9 9 9 10 12 13 12 10 10 12 12 8 5 7 9 9 10 9 8 7 7 9 12 14 13 8 0 -2 2 3 4 6 10 19 31 35 22 11 7 8 8 9 8 6 5 6 9 9 7 6 6 8 nan
nan 8 8 9 11 11 9 8 7 8 9 10 10 10 10 10 10 9 9 10 12 13 12 10 9 10 7 5 7 8 9 10 11 8 6 6 8 9 9 10 9 5 4 7 6 2 2 4 6 11 20 34 32 18 9 8 9 8 9 7 5 6 8 9 7 6 6 8 nan
nan 9 8 8 10 10 9 8 8 9 10 10 9 9 10 10 9 9 10 11 12 11 10 9 7 5 5 8 9 9 9 10 9 7 5 5 7 8 8 9 9 3 2 9 10 3 2 4 5 7 12 25 31 24 14 9 9 9 9 7 5 6 8 8 7 6 7 8 nan
nan 10 9 8 9 10 9 9 9 9 10 9 9 9 9 9 10 11 12 12 10 7 8 8 6 6 8 11 10 9 9 9 8 7 6 5 6 8 9 10 7 1 -5 3 13 6 3 4 5 7 10 19 25 21 14 9 10 10 9 6 5 7 10 10 7 5 5 8 nan
nan 10 9 8 9 9 9 9 9 9 9 9 9 9 9 10 12 11 11 10 9 9 9 8 6 7 9 11 11 9 9 9 7 6 6 6 7 7 8 10 7 -2 -12 -3 15 13 7 4 6 8 11 18 21 17 12 10 10 10 9 7 6 8 10 11 6 3 4 8 nan
nan 10 10 9 9 9 9 9 9 9 9 9 9 9 9 11 11 10 11 11 12 11 10 7 7 9 9 10 10 9 9 9 7 6 7 8 8 8 9 13 6 -8 -15 -5 14 18 14 6 6 9 12 18 19 13 10 10 10 9 8 7 7 8 9 9 8 5 5 8 nan
nan 10 10 9 9 9 9 9 9 9 8 9 9 9 10 11 10 10 10 11 12 12 10 8 9 10 10 10 10 9 7 7 9 9 9 9 8 8 11 13 1 -14 -14 -3 9 16 18 11 7 9 12 16 16 10 8 8 9 8 7 8 8 8 9 10 9 7 6 7 nan
nan 9 10 10 10 10 9 9 9 8 8 8 9 10 12 11 11 10 7 8 12 13 11 9 9 9 9 10 10 8 6 7 9 9 10 10 9 8 10 9 -3 -15 -11 1 5 10 17 17 12 11 13 14 13 8 7 7 7 6 7 8 9 9 10 12 11 9 7 7 nan
nan 9 10 11 11 10 9 9 8 8 8 8 9 10 11 12 12 10 6 9 13 12 10 9 9 8 9 11 10 8 8 8 9 8 8 9 10 10 10 8 -1 -10 -9 0 4 5 11 20 21 14 14 12 10 7 7 7 6 5 6 8 9 9 11 13 12 11 9 7 nan
nan 9 9 10 11 10 10 9 8 7 8 9 11 11 11 12 12 10 8 11 13 10 9 10 8 8 9 10 10 9 7 7 8 6 7 9 11 12 10 8 3 -5 -8 -4 2 3 4 14 26 23 19 11 8 7 8 8 6 5 6 8 10 11 12 13 12 11 9 3 nan
nan 10 10 10 10 10 10 9 8 7 8 11 12 11 11 13 11 9 7 11 13 9 9 10 8 7 7 8 9 9 9 9 8 7 8 10 11 10 10 10 7 0 -8 -8 -1 2 3 5 23 33 28 14 8 7 8 8 7 6 6 8 10 11 13 13 12 10 7 -5 nan
nan 10 10 10 10 10 10 9 8 9 10 11 10 10 11 12 10 7 7 12 13 9 9 7 6 5 5 8 12 11 10 10 9 9 9 9 6 6 11 14 10 2 -7 -9 -2 3 3 2 16 34 34 20 8 6 7 8 7 7 7 8 9 10 12 13 12 10 8 -6 nan
nan 10 10 10 10 11 10 9 10 11 10 9 9 10 11 11 9 8 10 12 11 10 9 7 5 5 4 9 14 12 10 10 10 9 8 7 3 4 14 19 12 5 -2 -5 -2 3 4 4 8 24 38 30 7 6 6 7 6 7 8 8 9 10 11 12 12 11 10 3 nan
nan nan nan nan nan nan nan nan nan nan nan nan nan nan nan nan nan nan nan nan nan nan nan nan nan nan nan nan nan nan nan nan nan nan nan nan nan nan nan nan nan nan nan nan nan nan nan nan nan nan nan nan nan nan nan nan nan nan nan nan nan nan nan nan nan nan nan nan nan
CAPE
nan nan nan 1 5 5 1 1 8 8 5 0 0 nan nan 1 0 0 0 1 1 0 0 nan nan nan nan nan nan nan nan nan nan 0 0 0 nan nan nan nan nan nan nan nan nan nan 1 1 3 3 7 14 15 9 9 5 0 1 1 1 0 0 0 1 2 2 4 7 6
nan nan nan 1 6 6 1 1 2 2 3 0 1 0 0 0 0 0 0 0 0 0 0 nan nan nan nan nan nan nan nan nan nan nan nan nan nan nan nan nan nan nan nan nan nan nan nan 0 0 0 2 11 15 12 12 4 0 nan nan 0 0 1 1 1 3 3 3 3 1
nan nan nan nan nan nan 0 0 nan nan nan 0 1 1 1 1 0 0 0 0 nan nan nan nan nan nan nan nan nan nan nan nan nan nan nan nan nan nan nan nan nan nan nan nan nan nan nan nan nan nan 8 10 10 9 9 2 0 nan nan nan nan nan nan 1 1 1 2 0 0
nan nan nan nan nan nan nan nan nan nan nan 0 0 1 1 1 1 0 0 nan nan nan nan nan nan nan nan nan nan nan nan nan nan nan nan nan nan nan nan nan nan nan nan nan nan nan nan nan nan nan 0 2 7 6 6 1 nan 0 0 nan nan nan nan 1 1 1 0 0 nan
nan nan nan nan nan nan nan nan nan nan nan 1 1 1 1 0 0 nan nan nan nan nan nan nan nan nan nan nan nan nan nan nan 0 nan nan nan nan nan nan nan nan nan nan nan nan nan nan nan nan nan nan 1 3 1 1 nan nan nan nan nan nan nan nan nan 0 0 0 1 1
nan nan nan nan nan nan nan nan nan nan nan 0 1 0 0 0 0 nan nan nan nan nan nan nan nan nan nan nan nan nan nan nan nan nan nan nan nan nan nan nan nan nan nan nan nan nan nan nan nan nan nan nan 0 nan nan nan nan nan nan nan nan nan nan nan 0 0 0 0 nan
nan nan nan nan nan nan nan nan nan nan 0 1 0 nan nan nan nan nan nan nan nan nan nan nan nan nan nan nan nan nan nan nan nan nan nan nan nan nan nan nan nan nan nan nan nan nan nan nan nan nan 1 10 nan nan nan nan nan nan nan nan nan nan nan nan nan nan 0 nan nan
nan nan nan nan nan nan nan nan nan nan nan 1 nan nan nan nan nan nan nan nan nan nan nan nan nan nan nan nan nan nan nan nan nan nan nan nan nan nan nan nan nan nan nan nan nan nan nan nan nan nan nan nan nan nan nan nan nan nan nan nan nan nan nan nan nan nan nan nan nan
nan nan nan nan nan nan nan nan nan nan nan nan nan nan nan nan nan nan nan nan nan nan nan nan nan nan nan nan nan nan nan nan nan nan nan nan nan nan nan nan nan nan nan nan nan nan nan nan nan nan nan nan nan nan nan nan nan nan nan nan nan nan nan nan nan nan nan nan nan
nan nan nan nan nan nan nan nan nan nan nan nan nan nan nan nan nan nan nan nan nan nan nan nan nan nan nan nan nan nan nan nan nan nan nan nan nan nan nan nan nan nan nan nan nan nan nan nan nan nan nan nan nan nan nan nan nan nan nan nan nan nan nan nan nan nan nan nan nan
nan nan nan nan nan nan nan nan nan nan nan nan nan nan nan nan nan nan nan nan nan nan nan nan nan nan nan nan nan nan nan nan nan nan nan nan nan nan nan nan nan nan nan nan nan nan nan nan nan nan nan nan nan nan nan nan nan nan nan nan nan nan nan nan nan nan nan nan nan
nan nan nan nan nan nan nan nan nan nan nan nan nan nan nan nan nan nan nan nan nan nan nan nan nan nan nan nan nan nan nan nan nan nan nan nan nan nan nan nan nan nan nan nan nan nan nan nan nan nan nan nan nan nan nan nan nan nan nan nan nan nan nan nan nan nan nan nan nan
nan nan nan nan nan nan nan nan nan nan nan nan nan nan nan nan nan nan nan nan nan nan nan nan nan nan nan nan nan nan nan nan nan nan nan nan nan nan nan nan nan nan nan nan nan nan nan nan nan nan nan nan nan nan nan nan nan nan nan nan nan nan nan nan nan nan nan nan nan
nan nan nan nan nan nan nan nan nan nan nan nan nan nan nan nan nan nan nan nan nan nan nan nan nan nan nan nan nan nan nan nan nan nan nan nan nan nan nan nan nan nan nan nan nan nan nan nan nan nan nan nan nan nan nan nan nan nan nan nan nan nan nan nan nan nan nan nan nan
nan nan nan nan nan nan nan nan nan nan nan nan nan nan nan nan nan nan nan nan nan nan nan nan nan nan nan nan nan nan nan nan nan nan nan nan nan nan nan nan nan nan nan nan nan nan nan nan nan nan nan nan nan nan nan nan nan nan nan nan nan nan nan nan nan nan nan nan nan
nan nan nan nan nan nan nan nan nan nan nan nan nan nan nan nan nan nan nan nan nan nan nan nan nan nan nan nan nan nan nan nan nan nan nan nan nan nan nan nan nan nan nan nan nan nan nan nan nan nan nan nan nan nan nan nan nan nan nan nan nan nan nan nan nan nan nan nan nan
nan nan nan nan nan nan nan nan nan nan nan nan nan nan nan nan nan nan nan nan nan nan nan nan nan nan nan nan nan nan nan nan nan nan nan nan nan nan nan nan nan nan nan nan nan nan nan nan nan nan nan nan nan nan nan nan nan nan nan nan nan nan nan nan nan nan nan nan nan
nan nan nan nan nan nan nan nan nan nan nan nan nan nan nan nan nan nan nan nan nan nan nan nan nan nan nan nan nan nan nan nan nan nan nan nan nan nan nan nan nan nan nan nan nan nan nan nan nan nan nan nan nan nan nan 0 0 0 0 1 2 2 2 1 0 0 0 0 1
nan nan nan nan nan nan nan nan nan nan nan nan nan nan nan nan nan nan nan nan nan nan nan nan nan nan nan nan nan nan nan nan nan nan nan nan nan nan nan nan nan nan nan nan nan nan nan nan nan nan nan nan nan nan nan nan nan nan nan nan nan nan nan nan nan nan nan nan nan
nan nan nan nan nan nan nan nan nan nan nan nan nan nan nan nan nan nan nan nan nan nan nan nan nan nan nan nan nan nan nan nan nan nan nan nan nan nan nan nan nan nan nan 10 nan nan nan nan nan nan nan nan nan nan nan nan nan nan nan nan nan nan nan nan nan nan nan nan nan
nan nan nan nan nan nan nan nan nan nan nan nan nan nan nan nan nan nan nan nan nan nan nan nan nan nan nan nan nan nan nan nan nan nan nan nan nan nan nan nan nan nan nan 16 nan nan nan nan nan nan nan nan nan nan nan nan nan nan nan nan nan nan nan nan nan nan nan nan nan
nan nan nan nan nan nan nan nan nan nan nan nan nan nan nan nan nan nan nan nan nan nan nan nan nan nan nan nan nan nan nan nan nan nan nan nan nan nan nan nan nan nan nan 4 nan nan nan nan nan nan nan nan nan nan nan nan nan nan nan nan nan nan nan nan nan nan nan nan nan
nan nan nan nan nan nan nan nan nan nan nan nan nan nan nan nan nan nan nan nan nan nan nan nan nan nan nan nan nan nan nan nan nan nan nan nan nan nan nan nan nan nan nan 3 nan nan nan nan nan nan nan nan nan nan nan nan nan nan nan nan nan nan nan nan nan nan nan nan nan
nan nan nan nan nan nan nan nan nan nan nan nan nan nan nan nan nan nan nan nan nan nan nan nan nan nan nan nan nan nan nan nan nan nan nan nan nan nan nan nan nan nan nan 2 13 13 0 nan nan nan nan nan nan nan nan nan nan nan nan nan nan nan nan nan nan nan nan nan nan
nan nan nan nan nan nan nan nan nan nan nan nan nan nan nan nan nan nan nan nan nan nan nan nan nan nan nan nan nan nan nan nan nan nan nan nan nan nan nan nan nan nan nan 18 222 222 165 18 nan nan nan nan nan nan nan nan nan nan nan nan nan nan nan nan nan nan nan nan nan
nan nan nan nan nan nan nan nan nan nan nan nan nan nan nan nan nan nan nan nan nan nan nan nan nan nan nan nan nan nan nan nan nan nan nan nan nan nan nan nan nan nan nan 74 215 215 184 113 17 17 nan nan nan nan nan nan nan nan nan nan nan nan nan nan nan nan nan nan nan
nan nan nan nan nan nan nan nan nan nan nan nan nan nan nan nan nan nan nan nan nan nan nan nan nan nan nan nan nan nan nan nan nan nan nan nan nan nan nan nan nan nan nan 109 227 227 183 140 44 44 nan nan nan nan nan nan nan nan nan nan nan nan nan nan nan nan nan nan nan
nan nan nan nan nan nan nan nan nan nan nan nan nan nan nan nan nan nan nan nan nan nan nan nan nan nan nan nan nan nan nan nan nan nan nan nan nan nan nan nan nan 28 28 265 222 222 210 153 75 75 8 nan nan nan nan nan nan nan nan nan nan nan nan nan nan nan nan nan nan
nan nan nan nan nan nan nan nan nan nan nan nan nan nan nan nan nan nan nan nan nan nan nan nan nan nan nan nan nan nan nan nan nan nan nan nan nan nan nan nan nan 23 23 340 236 236 210 149 95 95 34 nan nan nan nan nan nan nan nan nan nan nan nan nan nan nan nan nan nan
nan nan nan nan nan nan nan nan nan nan nan nan nan nan nan nan nan nan nan nan nan nan nan nan nan nan nan nan nan nan nan nan nan nan nan nan nan nan nan nan nan 7 7 381 262 262 216 161 99 99 51 nan nan nan nan nan nan nan nan nan nan nan nan nan nan nan nan nan nan
nan nan nan nan nan nan nan nan nan nan nan nan nan nan nan nan nan nan nan nan nan nan nan nan nan nan nan nan nan nan nan nan nan nan nan nan nan nan nan nan nan 1 1 478 314 314 232 181 99 99 49 0 nan nan nan nan nan nan nan nan nan nan nan nan nan nan nan nan nan
nan nan nan nan nan nan nan nan nan nan nan nan nan nan nan nan nan nan nan nan nan nan nan nan nan nan nan nan nan nan nan nan nan nan nan nan nan nan nan nan nan nan nan 492 396 396 260 187 116 116 52 0 nan nan nan nan nan nan nan nan nan nan nan nan nan nan nan nan nan
nan nan nan nan nan nan nan nan nan nan nan nan nan nan nan nan nan nan nan nan nan nan nan nan nan nan nan nan nan nan nan nan nan nan nan nan nan nan nan nan nan 1 1 399 453 453 322 192 123 123 51 0 nan nan nan nan nan nan nan nan nan nan nan nan nan nan nan nan nan
nan nan nan nan nan nan nan nan nan nan nan nan nan nan nan nan nan nan nan nan nan nan nan nan nan nan nan nan nan nan nan nan nan nan nan nan nan nan nan nan nan 8 8 291 494 494 388 197 111 111 41 nan nan nan nan nan nan nan nan nan nan nan nan nan nan nan nan nan nan
nan nan nan nan nan nan nan nan nan nan nan nan nan nan nan nan nan nan nan nan nan nan nan nan nan nan nan nan nan nan nan nan nan nan nan nan nan nan nan nan nan 6 6 208 420 420 418 259 101 101 24 nan nan nan nan nan nan nan nan nan nan nan nan nan nan nan nan nan nan
nan nan nan nan nan nan nan nan nan nan nan nan nan nan nan nan nan nan nan nan nan nan nan nan nan nan nan nan nan nan nan nan nan nan nan nan nan nan nan nan nan 0 0 140 327 327 434 324 110 110 9 nan nan nan nan nan nan nan nan nan nan nan nan nan nan nan nan nan nan
nan nan nan nan nan nan nan nan nan nan nan nan nan nan nan nan nan nan nan nan nan nan nan nan nan nan nan nan nan nan nan nan nan nan nan nan nan nan nan nan nan nan nan 84 274 274 403 384 158 158 nan nan nan nan nan nan nan nan nan nan nan nan nan nan nan nan nan nan nan
nan nan nan nan nan nan nan nan nan nan nan nan nan nan nan nan nan nan nan nan nan nan nan nan nan nan nan nan nan nan nan nan nan nan nan nan nan nan nan nan nan nan nan 17 219 219 347 411 262 262 nan nan nan nan nan nan nan nan nan nan nan nan nan nan nan nan nan nan 2
nan nan nan nan nan nan nan nan nan nan nan nan nan nan nan nan nan nan nan nan nan nan nan nan nan nan nan nan nan nan nan nan nan nan nan nan nan nan nan nan nan nan nan 0 172 172 275 421 361 361 24 nan nan nan nan nan nan nan nan nan nan nan nan nan nan nan nan nan 31
nan nan nan nan nan nan nan nan nan nan nan nan nan nan nan nan nan nan nan nan nan nan nan nan nan nan nan nan nan nan nan nan nan nan nan nan nan 3 3 nan nan nan nan nan 130 130 227 383 415 415 149 nan nan nan nan nan nan nan nan nan nan nan nan nan nan nan nan nan 20
nan nan nan nan nan nan nan nan nan nan nan nan nan nan nan nan nan nan nan nan nan nan nan nan nan nan nan nan nan nan nan nan nan nan nan nan nan 2 2 nan nan nan nan nan 111 111 210 337 429 429 322 nan nan nan nan nan nan nan nan nan nan nan nan nan nan nan nan nan nan